| time (UTC) | temp C | wind direction | speed KPH | gust KPH | rain 1hr cm | rain 24hr cm | rain mn cm | humidity % | barometer mb |
| 20260505011831 | 11 | 242 | 12.9 | 32.2 | 0.00 | 4.19 | 0.79 | 67 | 1004.2 |
| 20260505010325 | 11 | 240 | 19.3 | 40.2 | 0.00 | 4.19 | 0.79 | 66 | 1004.1 |
| 20260505004824 | 11 | 258 | 17.7 | 32.2 | 0.00 | 4.19 | 0.79 | 65 | 1004.0 |
| 20260505003337 | 11 | 257 | 17.7 | 33.8 | 0.00 | 4.19 | 0.79 | 64 | 1003.9 |
| 20260505001853 | 11 | 262 | 19.3 | 38.6 | 0.00 | 4.19 | 0.79 | 65 | 1003.8 |
| 20260505000322 | 11 | 231 | 16.1 | 38.6 | 0.00 | 4.19 | 0.79 | 65 | 1003.5 |
| 20260504234841 | 11 | 267 | 9.7 | 27.4 | 0.00 | 4.19 | 0.79 | 64 | 1003.1 |
| 20260504233333 | 11 | 256 | 14.5 | 37.0 | 0.00 | 4.19 | 0.79 | 63 | 1002.8 |
| 20260504231851 | 12 | 245 | 24.1 | 41.8 | 0.00 | 4.19 | 0.79 | 59 | 1002.7 |
| 20260504230323 | 11 | 239 | 17.7 | 33.8 | 0.00 | 4.19 | 0.79 | 58 | 1002.5 |
| 20260504224838 | 11 | 277 | 11.3 | 30.6 | 0.00 | 4.90 | 0.79 | 59 | 1002.4 |
| 20260504223332 | 11 | 282 | 25.7 | 45.1 | 0.00 | 4.90 | 0.79 | 56 | 1002.3 |
| 20260504221822 | 13 | 248 | 30.6 | 74.0 | 0.00 | 4.90 | 0.79 | 44 | 1002.4 |
| 20260504220324 | 13 | 273 | 16.1 | 30.6 | 0.00 | 4.90 | 0.79 | 40 | 1002.0 |
| 20260504214834 | 14 | 303 | 6.4 | 40.2 | 0.00 | 5.41 | 0.79 | 41 | 1001.9 |
| 20260504213356 | 13 | 256 | 25.7 | 53.1 | 0.00 | 5.41 | 0.79 | 41 | 1002.0 |
| 20260504211825 | 13 | 263 | 35.4 | 56.3 | 0.00 | 5.41 | 0.79 | 42 | 1001.7 |
| 20260504210347 | 13 | 290 | 24.1 | 41.8 | 0.00 | 5.41 | 0.79 | 43 | 1001.6 |
| 20260504204836 | 14 | 213 | 20.9 | 45.1 | 0.00 | 6.20 | 0.79 | 43 | 1001.2 |
| 20260504203329 | 13 | 258 | 9.7 | 37.0 | 0.00 | 6.20 | 0.79 | 45 | 1001.2 |
| 20260504201819 | 13 | 269 | 25.7 | 56.3 | 0.00 | 6.20 | 0.79 | 44 | 1001.1 |
| 20260504200322 | 13 | 258 | 24.1 | 45.1 | 0.00 | 6.20 | 0.79 | 45 | 1000.9 |
| 20260504194832 | 13 | 273 | 20.9 | 40.2 | 0.00 | 6.81 | 0.79 | 49 | 1000.5 |
| 20260504193354 | 13 | 267 | 25.7 | 41.8 | 0.00 | 6.81 | 0.79 | 49 | 1000.3 |
| 20260504191823 | 13 | 238 | 16.1 | 48.3 | 0.00 | 6.81 | 0.79 | 52 | 1000.5 |
| 20260504190344 | 13 | 257 | 19.3 | 56.3 | 0.00 | 6.81 | 0.79 | 53 | 1000.2 |
| 20260504184829 | 13 | 278 | 25.7 | 49.9 | 0.00 | 7.01 | 0.79 | 54 | 1000.1 |
| 20260504183323 | 13 | 267 | 29.0 | 51.5 | 0.00 | 7.01 | 0.79 | 54 | 999.8 |
| 20260504181835 | 13 | 275 | 17.7 | 40.2 | 0.00 | 7.01 | 0.79 | 57 | 999.7 |
| 20260504174847 | 13 | 285 | 25.7 | 59.5 | 0.00 | 7.01 | 0.79 | 55 | 999.4 |
| 20260504173321 | 12 | 277 | 30.6 | 61.2 | 0.00 | 7.01 | 0.79 | 57 | 999.1 |
| 20260504171831 | 13 | 267 | 20.9 | 49.9 | 0.00 | 7.01 | 0.79 | 61 | 999.3 |
| 20260504170352 | 12 | 280 | 19.3 | 37.0 | 0.00 | 7.01 | 0.79 | 67 | 999.1 |
| 20260504160328 | 10 | 256 | 20.9 | 61.2 | 0.00 | 7.01 | 0.79 | 75 | 998.4 |
| 20260504150328 | 10 | 261 | 29.0 | 66.0 | 0.00 | 7.01 | 0.79 | 77 | 997.7 |
| 20260504070333 | 3 | 285 | 25.7 | 57.9 | 0.41 | 4.80 | 0.33 | 95 | 981.2 |
| 20260504050323 | 3 | 282 | 17.7 | 38.6 | 0.30 | 3.91 | 0.15 | 96 | 977.6 |
| 20260504044830 | 3 | 277 | 16.1 | 32.2 | 0.20 | 3.71 | 0.13 | 95 | 977.3 |
| 20260504043330 | 4 | 258 | 16.1 | 29.0 | 0.20 | 3.61 | 0.10 | 96 | 976.8 |
| 20260504041836 | 5 | 285 | 6.4 | 19.3 | 0.30 | 3.61 | 0.10 | 96 | 976.4 |
| 20260504040331 | 5 | 296 | 6.4 | 16.1 | 0.51 | 3.61 | 0.10 | 96 | 976.0 |
| 20260504034821 | 4 | 296 | 6.4 | 17.7 | 0.51 | 3.51 | 0.08 | 96 | 975.7 |
| 20260504033335 | 4 | 327 | 3.2 | 16.1 | 0.51 | 3.40 | 0.05 | 96 | 975.7 |
| 20260504031826 | 4 | 344 | 6.4 | 14.5 | 0.30 | 3.20 | 0.03 | 95 | 975.5 |
| 20260504030347 | 4 | 13 | 8.0 | 17.7 | 0.30 | 3.10 | 0.00 | 95 | 975.7 |
| 20260504024836 | 4 | 34 | 8.0 | 19.3 | 0.20 | 3.00 | 0.61 | 95 | 975.8 |
| 20260504023330 | 4 | 40 | 8.0 | 16.1 | 0.10 | 2.90 | 0.58 | 95 | 976.0 |
| 20260504021820 | 5 | 71 | 11.3 | 20.9 | 0.10 | 2.90 | 0.58 | 95 | 976.1 |
| 20260504020321 | 5 | 66 | 9.7 | 17.7 | 0.00 | 2.79 | 0.56 | 95 | 976.5 |
| 20260504014831 | 5 | 80 | 12.9 | 20.9 | 0.00 | 2.79 | 0.56 | 95 | 976.9 |
| 20260504013353 | 5 | 69 | 17.7 | 27.4 | 0.00 | 2.79 | 0.56 | 95 | 977.2 |